This demonstration page uses our WeatherBlox Daily Observations layout. Learn more.

Left ArrowRight Arrow

Hourly Observations for September 18, 2022

Temp ( °F °C ) Dew Point ( °F °C ) Humidity (%) Winds ( mph kmh ) Pressure ( in mb ) Visibility ( mi km ) Precip ( " mm )
12:55 am 00:55 Mostly Clear 71 21.8 66 18.8 83 83 E 7 11 29.87 1012 10 16 0.00 0.00
1:55 am 01:55 Clear 69 20.8 65 18.4 86 86 Calm 29.85 1011 10 16 0.00 0.00
2:55 am 02:55 Clear 69 20.7 65 18.1 85 85 Calm 29.85 1011 10 16 0.00 0.00
3:55 am 03:55 Clear 67 19.7 64 17.8 89 89 ENE 3 6 29.87 1012 10 16 0.00 0.00
4:55 am 04:55 Clear 67 19.5 64 17.8 90 90 ENE 5 7 29.87 1012 10 16 0.00 0.00
5:55 am 05:55 Clear 67 19.4 64 17.5 89 89 Calm 29.88 1012 10 16 0.00 0.00
6:55 am 06:55 Mostly Clear 65 18.6 63 17.4 93 93 Calm 29.89 1012 10 16 0.00 0.00
7:55 am 07:55 Sunny 67 19.6 64 17.7 89 89 NE 3 6 29.90 1013 10 16 0.00 0.00
8:55 am 08:55 Cloudy 68 20 64 17.9 88 88 E 5 7 29.93 1014 10 16 0.00 0.00
9:48 am 09:48 Mostly Cloudy with Thunderstorms 70 21 66 19 88 88 E 5 7 29.91 1013 10 16 0.00 0.00
10:13 am 10:13 Partly Cloudy 70 21 66 19 88 88 NNE 3 6 29.91 1013 10 16 0.00 0.00
10:55 am 10:55 Sunny 75 23.8 67 19.7 78 78 ESE 7 11 29.90 1013 10 16 0.01 0.13
11:55 am 11:55 Sunny 80 26.8 68 20.1 67 67 SE 7 11 29.90 1013 10 16 0.00 0.00
12:55 pm 12:55 Mostly Sunny 83 28.3 68 20 61 61 ESE 5 7 29.88 1012 10 16 0.00 0.00
1:55 pm 13:55 Cloudy 83 28.6 68 19.8 59 59 SE 3 6 29.87 1011 10 16 0.00 0.00
2:55 pm 14:55 Mostly Cloudy 85 29.6 68 19.9 56 56 E 3 6 29.86 1011 10 16 0.00 0.00
3:55 pm 15:55 Partly Cloudy 85 29.7 69 20.8 59 59 NNE 9 15 29.87 1011 10 16 0.00 0.00
4:55 pm 16:55 Partly Cloudy 86 30 69 20.8 58 58 NE 7 11 29.85 1011 10 16 0.00 0.00
5:55 pm 17:55 Mostly Sunny 85 29.5 69 20.3 58 58 NNE 7 11 29.86 1011 10 16 0.00 0.00
6:55 pm 18:55 Mostly Sunny 83 28.3 69 20.3 62 62 NE 5 7 29.87 1012 10 16 0.00 0.00
7:55 pm 19:55 Clear 80 26.7 69 20.3 68 68 NNE 6 9 29.88 1012 10 16 0.00 0.00
8:55 pm 20:55 Clear 79 25.9 67 19.7 69 69 NNE 8 13 29.90 1013 10 16 0.00 0.00
9:55 pm 21:55 Clear 77 24.9 67 19.7 73 73 NNE 9 15 29.91 1013 10 16 0.00 0.00
10:55 pm 22:55 Clear 75 24 67 19.7 77 77 NE 8 13 29.91 1013 10 16 0.00 0.00
11:55 pm 23:55 Clear 74 23.2 67 19.7 81 81 NE 7 11 29.92 1013 10 16 0.00 0.00

Powered by AerisWeather